weather.gov     
National Weather Service

Regional Weather Roundup
NWS Homepage
This page is being discontinued on March 12, 2014.
The same data is available at this site. Please update your bookmarks.
Thank you, and we apologize for the inconvenience.
Please send an email to SR-SRH.Webmaster@noaa.gov with any concerns.


Current Version
Previous Version:    01  02  03  04  05  06  07  08  09  10  11  12  13  14  15  16  17  18  19  20  21  22  23  24  25  26  27  28  29  30  
   31  32  33  34  35  36  37  38  39  40  41  42  43  44  45  46  47  48  49  50  51  52  53  
[Printable]
973
ASUS43 KTOP 281708
RWRKS

WEATHER ROUNDUP FOR KANSAS
NATIONAL WEATHER SERVICE GOODLAND KS
1100 AM CST FRI NOV 28 2014

NOTE:  "FAIR" INDICATES FEW OR NO CLOUDS BELOW 12,000 FEET WITH NO
SIGNIFICANT WEATHER AND/OR OBSTRUCTIONS TO VISIBILITY.

KSZ001>006-013>018-027>032-041>047-281800-
NORTHWEST KANSAS

CITY           SKY/WX    TMP DP  RH WIND       PRES   REMARKS
GOODLAND       MOSUNNY   65  23  20 W7        29.90F
HAYS           SUNNY     55  28  35 SW13      29.87F
HILL CITY      SUNNY     63  27  25 W9        29.87S
RUSSELL        MOSUNNY   53  31  42 SW13      29.86F
$$

KSZ061>065-074>080-084>089-281800-
SOUTHWEST KANSAS

CITY           SKY/WX    TMP DP  RH WIND       PRES   REMARKS
DODGE CITY     MOSUNNY   54  30  40 W10       29.93R
ELKHART          N/A     60  25  26 S8          N/A
GARDEN CITY    MOSUNNY   59  26  28 W13       29.93F
GREAT BEND     MOSUNNY   54  32  43 SW12      29.90F
LIBERAL        SUNNY     64  30  27 SW8       29.97S
PRATT          MOSUNNY   52  32  46 S13       29.92F
$$

KSZ066>073-081>083-090>101-281800-
SOUTHEAST KANSAS

CITY           SKY/WX    TMP DP  RH WIND       PRES   REMARKS
CHANUTE        SUNNY     52  31  44 SW24G31   29.99F
COFFEYVILLE    SUNNY     53  31  42 S17G28    30.04F
HUTCHINSON     MOSUNNY   53  32  44 S18       29.92F
MEDICINE LODGE   N/A     48  33  56 S9        29.95F
NEWTON         SUNNY     52  30  43 S17G24    29.94F
PARSONS        SUNNY     52  32  46 S16G24    30.03F
WICHITA INTL   MOSUNNY   53  32  44 S16       29.95F
WICHITA JABRA  SUNNY     52  32  46 S16       29.95F
WICHITA MCCONL SUNNY     52  31  44 SW15      29.96F
WINFIELD       SUNNY     54  34  46 SW17      30.00F
$$

KSZ007>012-019>026-033>040-048>060-102>105-281800-
NORTHEAST KANSAS

CITY           SKY/WX    TMP DP  RH WIND       PRES   REMARKS
CONCORDIA      SUNNY     50  30  46 SW10      29.86F
EMPORIA        SUNNY     55  31  39 SW15      29.93F
LAWRENCE       SUNNY     50  29  44 SW17      29.94F
MANHATTAN      SUNNY     51  30  44 SW14      29.89F
MARYSVILLE     SUNNY     46  32  57 SW9       29.85F
OLATHE IND     SUNNY     49  30  48 SW18G29   29.95F
OLATHE EXE     SUNNY     49  29  46 SW14G25   29.94F
SALINA         SUNNY     53  31  42 SW10      29.90F
TOPEKA BILLARD SUNNY     50  29  44 SW10      29.92F
TOPEKA FORBES  SUNNY     51  29  42 S17       29.91F
$$




U.S. Dept. of Commerce
NOAA National Weather Service
1325 East West Highway
Silver Spring, MD 20910
E-mail: w-nws.webmaster@noaa.gov
Page last modified: May 16, 2007
NATIONAL WEATHER SERVICE: for Safety, for Work, for Fun - FOR LIFE